Weather History for Charleroi, Belgium

Change the Weather History Date:

Sunday, October 7, 2012

  Actual Average Record
Temperature  
Mean Temperature 50 °F -  
Max Temperature 57 °F 54 °F 68 °F (2010)
Min Temperature 42 °F 42 °F 35 °F (1996)
Degree Days  
Heating Degree Days 16    
Moisture  
Dew Point 43 °F    
Average Humidity 80    
Maximum Humidity 100    
Minimum Humidity 45    
Precipitation  
Precipitation 0.00 in - - ()
Sea Level Pressure  
Sea Level Pressure 30.13 in    
Wind  
Wind Speed 5 mph ()    
Max Wind Speed 10 mph    
Max Gust Speed -    
Visibility 5.0 miles    
Events Fog , Rain    
Averages and records for this station are not official NWS values.
T = Trace of Precipitation, MM = Missing Value Source: Averaged Metar Reports

Daily Weather History Graph

Daily Weather History Graph

Search for Another Location

Airport:

Trip Planner

Search our weather history database for the weather conditions in past years. The results will help you decide how hot, cold, wet, or windy it might be!

Date:

Astronomy

Oct. 07, 2012 Rise Set
Actual Time 7:52 AM CEST 7:06 PM CEST
Civil Twilight 7:19 AM CEST 7:39 PM CEST
Nautical Twilight 6:41 AM CEST 8:16 PM CEST
Astronomical Twilight 6:03 AM CEST 8:55 PM CEST
Moon 11:37 PM CEST (10/7) 2:45 PM CEST (10/7)
Length of Visible Light 12h 19m
Length of Day
11h 14m
Waning Gibbous, 58% of the Moon is Illuminated
Oct 7
Waning Gibbous
Oct 8
Last Quarter
Oct 15
New
Oct 22
First Quarter
Oct 29
Full

Hourly Weather History & Observations

Time (CEST) Temp. Windchill Dew Point Humidity Pressure Visibility Wind Dir Wind Speed Gust Speed Precip Events Conditions
12:20 AM 48.2 °F - 46.4 °F 93% 29.98 in 3.7 mi NE 5.8 mph - N/A Rain Light Rain
12:50 AM 48.2 °F - 46.4 °F 93% 29.98 in 3.7 mi ENE 4.6 mph - N/A Rain Light Rain
1:20 AM 48.2 °F - 46.4 °F 93% 29.98 in 3.7 mi NE 5.8 mph - N/A Rain Light Rain
1:50 AM 48.2 °F - 46.4 °F 93% 29.98 in 2.5 mi NE 6.9 mph - N/A Rain Light Rain
2:00 AM 49 °F - 47 °F 92% 29.99 in 2 mi NE 6.7 mph - - Rain Light Rain
2:20 AM 48.2 °F - 46.4 °F 93% 29.98 in 1.9 mi NNE 5.8 mph - N/A   Mostly Cloudy
2:50 AM 48.2 °F - 48.2 °F 100% 29.98 in 1.9 mi North 5.8 mph - N/A   Mostly Cloudy
3:20 AM 48.2 °F - 48.2 °F 100% 30.01 in 1.9 mi North 6.9 mph - N/A   Mostly Cloudy
3:50 AM 48.2 °F - 46.4 °F 93% 30.01 in 1.2 mi North 8.1 mph - N/A   Mostly Cloudy
4:20 AM 46.4 °F 42.9 °F 44.6 °F 93% 30.01 in - North 6.9 mph - N/A   Mostly Cloudy
4:50 AM 46.4 °F 42.9 °F 44.6 °F 93% 30.01 in 2.5 mi North 6.9 mph - N/A   Mostly Cloudy
5:00 AM 46 °F - 44 °F 92% 30.03 in 2 mi North 6.7 mph - -   Mist
5:20 AM 44.6 °F 41.4 °F 42.8 °F 93% 30.01 in 2.8 mi North 5.8 mph - N/A   Mostly Cloudy
5:50 AM 44.6 °F 42.2 °F 42.8 °F 93% 30.04 in 2.8 mi North 4.6 mph - N/A   Mostly Cloudy
6:20 AM 42.8 °F 41.1 °F 42.8 °F 100% 30.04 in 5.6 mi NNE 3.5 mph - N/A   Scattered Clouds
6:50 AM 44.6 °F 43.1 °F 42.8 °F 93% 30.04 in 5.6 mi North 3.5 mph - N/A   Scattered Clouds
7:20 AM 44.6 °F 42.2 °F 42.8 °F 93% 30.06 in 3.1 mi NNW 4.6 mph - N/A   Partly Cloudy
7:50 AM 44.6 °F - 42.8 °F 93% 30.06 in 3.1 mi North 2.3 mph - N/A   Partly Cloudy
8:00 AM 44 °F - 43 °F 93% 30.09 in 2 mi North 2.2 mph - -   Mist
8:20 AM 42.8 °F 41.1 °F 42.8 °F 100% 30.06 in 3.1 mi NNW 3.5 mph - N/A Fog Shallow Fog
8:50 AM 46.4 °F 45.2 °F 44.6 °F 93% 30.09 in 3.7 mi NNW 3.5 mph - N/A   Partly Cloudy
9:20 AM 48.2 °F - 44.6 °F 87% 30.09 in 6.2 mi NNW 3.5 mph - N/A   Partly Cloudy
9:50 AM 50.0 °F - 44.6 °F 82% 30.09 in 6.2 mi North 2.3 mph - N/A   Partly Cloudy
10:20 AM 50.0 °F - 44.6 °F 82% 30.12 in 6.2 mi North 3.5 mph - N/A   Partly Cloudy
10:50 AM 51.8 °F - 44.6 °F 76% 30.12 in 6.2 mi North 5.8 mph - N/A   Partly Cloudy
11:00 AM 52 °F - 45 °F 70% 30.16 in 17 mi North 4.5 mph - -   Scattered Clouds
11:20 AM 53.6 °F - 44.6 °F 72% 30.15 in 6.2 mi North 5.8 mph - N/A   Partly Cloudy
11:50 AM 53.6 °F - 44.6 °F 72% 30.15 in 6.2 mi North 8.1 mph - N/A   Partly Cloudy
12:20 PM 53.6 °F - 44.6 °F 72% 30.15 in 6.2 mi NNE 10.4 mph - N/A   Scattered Clouds
12:50 PM 55.4 °F - 42.8 °F 63% 30.18 in 6.2 mi NNE 10.4 mph - N/A   Scattered Clouds
1:20 PM 55.4 °F - 44.6 °F 67% 30.18 in 6.2 mi North 6.9 mph - N/A   Scattered Clouds
1:50 PM 57.2 °F - 42.8 °F 59% 30.18 in 6.2 mi NE 6.9 mph - N/A   Scattered Clouds
2:00 PM 57 °F - 43 °F 48% 30.20 in 22 mi NE 6.7 mph - -   Partly Cloudy
2:20 PM 55.4 °F - 42.8 °F 63% 30.18 in 6.2 mi North 5.8 mph - N/A   Scattered Clouds
2:50 PM 55.4 °F - 42.8 °F 63% 30.18 in 6.2 mi NNE 8.1 mph - N/A   Scattered Clouds
3:20 PM 55.4 °F - 41.0 °F 58% 30.18 in 6.2 mi NNE 6.9 mph - N/A   Scattered Clouds
3:50 PM 55.4 °F - 39.2 °F 54% 30.21 in 6.2 mi North 9.2 mph - N/A   Scattered Clouds
4:20 PM 55.4 °F - 41.0 °F 58% 30.21 in 6.2 mi NNE 8.1 mph - N/A   Partly Cloudy
4:50 PM 55.4 °F - 39.2 °F 54% 30.21 in 6.2 mi North 5.8 mph - N/A   Partly Cloudy
5:00 PM 55 °F - 40 °F 45% 30.22 in 22 mi North 4.5 mph - -   Scattered Clouds
5:20 PM 55.4 °F - 41.0 °F 58% 30.21 in 6.2 mi NNE 5.8 mph - N/A   Partly Cloudy
5:50 PM 53.6 °F - 41.0 °F 62% 30.21 in 6.2 mi NE 5.8 mph - N/A   Partly Cloudy
6:20 PM 51.8 °F - 41.0 °F 67% 30.21 in 6.2 mi NE 5.8 mph - N/A   Partly Cloudy
6:50 PM 50.0 °F - 42.8 °F 76% 30.21 in 6.2 mi ENE 3.5 mph - N/A   Partly Cloudy
7:20 PM 48.2 °F - 41.0 °F 76% 30.21 in - East 3.5 mph - N/A   Clear
7:50 PM 48.2 °F - 42.8 °F 82% 30.21 in - East 3.5 mph - N/A   Clear
8:00 PM 48 °F - 43 °F 75% 30.25 in 22 mi East 2.2 mph - -   Clear
8:20 PM 48.2 °F - 42.8 °F 82% 30.21 in - East 4.6 mph - N/A   Clear
8:50 PM 48.2 °F - 42.8 °F 82% 30.24 in - Variable 2.3 mph - N/A   Clear
9:20 PM 48.2 °F - 42.8 °F 82% 30.24 in - Calm Calm - N/A   Clear
9:50 PM 46.4 °F - 42.8 °F 87% 30.24 in - Variable 2.3 mph - N/A   Clear
10:20 PM 44.6 °F 43.1 °F 42.8 °F 93% 30.24 in - SE 3.5 mph - N/A   Clear
10:50 PM 44.6 °F - 42.8 °F 93% 30.24 in - Variable 1.2 mph - N/A   Clear
11:00 PM 45 °F - 42 °F 87% 30.27 in 12 mi SSW 2.2 mph - -   Clear
11:20 PM 44.6 °F - 42.8 °F 93% 30.24 in - Variable 1.2 mph - N/A   Clear
11:50 PM 44.6 °F - 41.0 °F 87% 30.24 in - Variable 1.2 mph - N/A   Clear